Eagle, AK

9:28 AM AKDT on May 23, 2017 (GMT -0800)
Eagle

Weather History for PAEG - December, 2013

Change the Weather History Date:

Wednesday, December 4, 2013

  Actual Average (PABN) Record (PABN)
Temperature  
Mean Temperature -12 °F -  
Max Temperature 0 °F 4 °F 44 °F (2011)
Min Temperature -23 °F 0 °F -29 °F (2012)
Degree Days  
Heating Degree Days 76    
Moisture  
Dew Point -24 °F    
Average Humidity 68    
Maximum Humidity 75    
Minimum Humidity 52    
Precipitation  
Precipitation 0.00 in - - ()
Sea Level Pressure  
Sea Level Pressure 30.74 in    
Wind  
Wind Speed 4 mph (SSE)    
Max Wind Speed 14 mph    
Max Gust Speed 28 mph    
Visibility 10 miles    
Events      
Averages and records for this station are not official NWS values.
T = Trace of Precipitation, MM = Missing Value Source: NWS Daily Summary

Daily Weather History Graph

Daily Weather History Graph

Search for Another Location

Airport or City:

Trip Planner

Search our weather history database for the weather conditions in past years. The results will help you decide how hot, cold, wet, or windy it might be!

Date:

Astronomy

Dec. 04, 2013 Rise Set
Actual Time 10:01 AM AKST 2:28 PM AKST
Civil Twilight 8:44 AM AKST 3:45 PM AKST
Nautical Twilight 7:35 AM AKST 4:54 PM AKST
Astronomical Twilight 6:34 AM AKST 5:54 PM AKST
Moon 11:10 AM AKST (12/4) 5:19 PM AKST (12/4)
Length of Visible Light 7h 01m
Length of Day
4h 26m
Waxing Crescent, 5% of the Moon is Illuminated
Dec 4
Waxing Crescent
Dec 9
First Quarter
Dec 17
Full
Dec 25
Last Quarter
Jan 1
New

Hourly Weather History & Observations

Time (AKST) Temp. Windchill Dew Point Humidity Pressure Visibility Wind Dir Wind Speed Gust Speed Precip Events Conditions
12:53 AM -0.9 °F -19.9 °F -15.0 °F 52% 30.65 in 10.0 mi ESE 13.8 mph 27.6 mph N/A   Clear
1:53 AM -0.0 °F -17.1 °F -14.1 °F 52% 30.67 in 10.0 mi SE 11.5 mph 21.9 mph N/A   Clear
3:53 AM -2.0 °F -10.1 °F -14.1 °F 57% 30.68 in 10.0 mi SE 3.5 mph - N/A   Partly Cloudy
4:53 AM -2.9 °F -11.2 °F -14.1 °F 59% 30.67 in 10.0 mi SSE 3.5 mph - N/A   Clear
5:53 AM -9.0 °F - -17.0 °F 68% 30.68 in 10.0 mi Calm Calm - N/A   Clear
6:53 AM -13.0 °F - -18.9 °F 75% 30.69 in 10.0 mi Calm Calm - N/A   Clear
7:53 AM -15.0 °F -27.4 °F -20.9 °F 75% 30.70 in 10.0 mi South 4.6 mph - N/A   Clear
8:53 AM -16.1 °F - -23.1 °F 71% 30.71 in 10.0 mi Calm Calm - N/A   Clear
9:53 AM -18.0 °F - -24.0 °F 74% 30.71 in 10.0 mi Calm Calm - N/A   Clear
10:53 AM -18.0 °F - -24.0 °F 74% 30.73 in 10.0 mi Calm Calm - N/A   Clear
11:53 AM -17.0 °F - -24.0 °F 70% 30.74 in 10.0 mi Calm Calm - N/A   Clear
12:53 PM -17.0 °F - -24.0 °F 70% 30.74 in 10.0 mi Calm Calm - N/A   Clear
1:53 PM -18.0 °F - -24.0 °F 74% 30.74 in 10.0 mi Calm Calm - N/A   Clear
2:53 PM -18.9 °F - -26.0 °F 70% 30.75 in 10.0 mi Calm Calm - N/A   Clear
3:53 PM -20.9 °F - -27.0 °F 73% 30.76 in 10.0 mi Calm Calm - N/A   Clear
4:53 PM -22.0 °F - -29.0 °F 70% 30.76 in 10.0 mi Calm Calm - N/A   Clear
5:53 PM -22.0 °F - -29.0 °F 70% 30.78 in 10.0 mi Calm Calm - N/A   Clear
6:53 PM -23.1 °F - -29.9 °F 70% 30.80 in 10.0 mi Calm Calm - N/A   Clear
7:53 PM -23.1 °F - -29.9 °F 70% 30.80 in 10.0 mi Calm Calm - N/A   Clear
8:53 PM -23.1 °F - -29.9 °F 70% 30.80 in 10.0 mi Calm Calm - N/A   Clear
9:53 PM -23.1 °F - -29.9 °F 70% 30.80 in 10.0 mi Calm Calm - N/A   Clear
10:53 PM -23.1 °F - -29.9 °F 70% 30.81 in 10.0 mi Calm Calm - N/A   Clear
11:53 PM -23.1 °F - -29.9 °F 70% 30.81 in 10.0 mi Calm Calm - N/A   Clear